Stations météo

réclame
Mon MeteoGroup
Vichy, France (7374): Température de l'air & dewpoint: 06.11.2019 11:00:00 - 12.11.2019 11:00:00 (CET)Vichy, France (7374): Température de l'air 5cm: 06.11.2019 11:00:00 - 12.11.2019 11:00:00 (CET)Vichy, France (7374): Vitesse du vent & gusts: 06.11.2019 11:00:00 - 12.11.2019 11:00:00 (CET)Vichy, France (7374): Direction du vent: 06.11.2019 11:00:00 - 12.11.2019 11:00:00 (CET)Vichy, France (7374): reduced air pressure: 06.11.2019 11:00:00 - 12.11.2019 11:00:00 (CET)Vichy, France (7374): visibility: 06.11.2019 11:00:00 - 12.11.2019 11:00:00 (CET)Vichy, France (7374): Ensoleillement: 06.11.2019 11:00:00 - 12.11.2019 11:00:00 (CET)Vichy, France (7374): Quantités de précipitations: 06.11.2019 11:00:00 - 12.11.2019 11:00:00 (CET)
Date & Time tt [°C] td [°C] tt 5cm [°C] ff [km/h] ff [knt] fx [km/h] fx [knt] dd ppp [hPa] vv [km] sd [min] rr [mm]
12.11.2019 11:00:00 8,3 3,7 6,0 11 6 21 11 S 1010,6 20 41 0,0
12.11.2019 10:00:00 5,5 3,2 4,0 10 5 17 9 S 1010,9 20 3 0,0
12.11.2019 09:00:00 3,9 2,7 2,8 9 5 18 10 S 1011,4 20 8 0,2
12.11.2019 08:00:00 3,5 2,0 2,2 13 7 20 11 S 1011,7 20 0 0,0
12.11.2019 07:00:00 2,9 1,9 0,9 9 5 17 9 S 1012,0 20 0 0,0
12.11.2019 06:00:00 2,3 1,7 -0,4 7 4 14 8 S 1012,6 20 0 0,0
12.11.2019 05:00:00 1,6 0,9 0,0 8 5 17 9 S 1012,8 20 0 0,0
12.11.2019 04:00:00 2,3 1,7 -0,4 8 5 14 8 S 1013,2 20 0 0,0
12.11.2019 03:00:00 2,1 1,8 -1,7 9 5 13 7 S 1013,6 20 0 0,0
12.11.2019 02:00:00 1,0 0,6 -1,5 5 3 11 6 S 1014,1 12 0 0,0
12.11.2019 01:00:00 2,5 2,1 -0,1 6 3 10 6 SSW 1014,5 17 0 0,0
12.11.2019 00:00:00 2,6 2,0 -0,2 3 2 12 7 SSW 1014,6 14 0 0,0
11.11.2019 23:00:00 2,8 2,1 -0,7 6 3 10 5 S 1014,1 16 0 0,0
11.11.2019 22:00:00 4,8 3,3 1,7 4 2 10 6 S 1013,7 20 0 0,0
11.11.2019 21:00:00 5,5 4,0 4,0 5 3 17 9 S 1013,1 20 0 0,0
11.11.2019 20:00:00 6,5 3,5 4,9 8 5 19 11 NW 1012,6 17 0 0,0
11.11.2019 19:00:00 6,9 4,9 5,7 3 2 23 13 W 1011,6 20 0 0,4
11.11.2019 18:00:00 8,2 6,0 7,0 8 4 21 12 SW 1010,2 12 0 0,2
11.11.2019 17:00:00 8,1 5,9 7,0 6 4 23 12 SSW 1009,2 20 0 0,8
11.11.2019 16:00:00 9,8 4,0 9,1 10 5 29 16 SW 1008,7 20 0 0,0
11.11.2019 15:00:00 9,4 4,2 7,4 8 4 23 13 SSW 1009,1 20 0 0,2
11.11.2019 14:00:00 9,3 3,5 7,8 11 6 27 15 SSW 1009,5 20 9 0,0
11.11.2019 13:00:00 10,6 4,1 12,7 17 9 31 17 S 1010,3 19 60 0,0
11.11.2019 12:00:00 8,8 3,0 12,6 15 8 23 13 S 1011,5 20 60 0,0
11.11.2019 11:00:00 5,4 2,9 3,1 13 7 22 12 S 1012,5 19 38 0,0
11.11.2019 10:00:00 2,3 1,4 1,0 10 6 16 9 S 1013,8 20 0 0,0
11.11.2019 09:00:00 1,1 0,5 -0,8 9 5 13 7 S 1015,0 20 11 0,0
11.11.2019 08:00:00 0,5 -0,1 -0,8 4 2 18 10 SSW 1014,9 20 0 0,0
11.11.2019 07:00:00 0,8 0,2 -0,2 11 6 19 11 S 1015,1 20 0 0,0
11.11.2019 06:00:00 0,7 0,1 -0,7 8 5 13 7 S 1016,0 20 0 0,0
11.11.2019 05:00:00 0,5 -0,1 -0,8 4 2 15 8 WSW 1016,8 20 0 0,0
11.11.2019 04:00:00 0,2 -0,4 -2,4 10 5 16 9 S 1016,0 20 0 0,0
11.11.2019 03:00:00 -0,4 -0,5 -2,7 5 3 9 5 S 1017,3 14 0 0,0
11.11.2019 02:00:00 0,2 0,1 -2,4 2 1 15 8 SW 1017,2 17 0 0,0
11.11.2019 01:00:00 0,1 0,1 -3,3 6 4 10 6 S 1016,9 12 0 0,0
11.11.2019 00:00:00 -0,2 -0,5 -2,6 3 2 10 5 WSW 1017,6 14 0 0,0
10.11.2019 23:00:00 -0,1 -0,5 -2,7 0 0 4 2 N 1016,3 10 0 0,0
10.11.2019 22:00:00 0,8 0,4 -1,8 2 1 4 2 W 1016,5 11 0 0,0
10.11.2019 21:00:00 1,7 1,4 -1,4 2 1 4 2 W 1016,7 17 0 0,0
10.11.2019 20:00:00 2,8 2,4 -0,1 0 0 3 2 N 1016,4 20 0 0,0
10.11.2019 19:00:00 3,3 2,7 -0,4 0 0 4 2 N 1015,7 20 0 0,0
10.11.2019 18:00:00 4,5 3,3 0,8 2 1 3 2 W 1014,9 20 0 0,0
10.11.2019 17:00:00 8,1 3,5 4,8 0 0 9 5 N 1013,6 20 39 0,0
10.11.2019 16:00:00 9,9 3,0 10,8 7 4 11 6 NE 1012,7 20 45 0,0
10.11.2019 15:00:00 10,4 2,5 10,9 5 3 10 6 SSE 1012,1 20 25 0,0
10.11.2019 14:00:00 9,2 3,6 10,8 4 2 14 8 WSW 1011,7 20 0 0,0
10.11.2019 13:00:00 9,0 3,6 10,2 6 3 16 9 NW 1011,6 20 7 0,0
10.11.2019 12:00:00 8,7 3,5 8,8 8 4 22 12 SSW 1011,5 20 0 0,0
10.11.2019 11:00:00 8,1 3,7 9,5 9 5 18 10 SSW 1011,3 20 7 0,0
10.11.2019 10:00:00 7,0 4,1 6,2 7 4 13 7 S 1010,9 20 19 0,0
10.11.2019 09:00:00 6,1 3,6 4,6 6 3 11 6 S 1010,1 20 0 0,0
10.11.2019 08:00:00 5,5 3,2 2,5 5 3 12 7 SSW 1009,5 20 0 0,0
10.11.2019 07:00:00 4,5 2,4 1,4 4 2 14 7 S 1009,0 20 0 0,0
10.11.2019 06:00:00 5,7 2,3 3,3 8 5 21 11 SSW 1008,6 20 0 0,0
10.11.2019 05:00:00 6,6 2,7 4,3 7 4 18 10 SW 1007,7 20 0 0,0
10.11.2019 04:00:00 6,9 2,8 4,5 6 3 26 14 SW 1007,3 20 0 0,0
10.11.2019 03:00:00 6,0 4,6 4,0 6 3 14 8 S 1007,5 14 0 0,0
10.11.2019 02:00:00 5,3 3,6 3,6 11 6 22 12 S 1007,1 20 0 0,0
10.11.2019 01:00:00 5,9 3,7 4,9 9 5 25 14 S 1006,7 20 0 0,0
10.11.2019 00:00:00 5,5 4,0 4,7 6 4 12 7 S 1006,2 20 0 0,2
09.11.2019 23:00:00 5,2 4,2 4,6 4 2 11 6 SSE 1006,4 12 0 1,4
09.11.2019 22:00:00 5,8 3,3 2,5 9 5 30 16 S 1007,1 16 0 0,6
09.11.2019 21:00:00 4,1 2,6 -1,2 6 4 14 7 SW 1007,7 20 0 0,0
09.11.2019 20:00:00 2,3 1,9 -1,4 4 2 10 5 S 1008,5 20 0 0,0
09.11.2019 19:00:00 2,5 1,8 -1,3 0 0 4 2 N 1009,0 20 0 0,0
09.11.2019 18:00:00 4,5 2,8 0,2 0 0 6 3 N 1009,5 20 0 0,0
09.11.2019 17:00:00 8,1 2,3 5,1 3 2 16 9 SSW 1009,7 20 10 0,0
09.11.2019 16:00:00 10,3 2,9 10,2 9 5 20 11 S 1010,2 20 37 0,0
09.11.2019 15:00:00 11,1 3,4 12,2 8 5 20 11 SSW 1010,8 20 53 0,0
09.11.2019 14:00:00 10,6 3,6 10,5 11 6 19 11 S 1012,0 20 28 0,0
09.11.2019 13:00:00 9,6 4,0 9,5 8 4 16 9 S 1012,9 20 16 0,0
09.11.2019 12:00:00 8,1 4,5 9,7 4 2 15 8 W 1014,0 20 14 0,0
09.11.2019 11:00:00 7,7 5,2 8,4 3 2 8 4 SSW 1014,8 20 2 0,0
09.11.2019 10:00:00 7,1 5,6 6,7 0 0 5 3 N 1015,0 19 0 0,0
09.11.2019 09:00:00 6,2 5,3 5,0 0 0 4 2 N 1015,2 20 5 0,0
09.11.2019 08:00:00 5,7 5,0 4,3 0 0 12 6 N 1014,7 14 0 0,0
09.11.2019 07:00:00 6,1 5,4 5,6 5 3 10 5 WNW 1014,7 20 0 0,0
09.11.2019 06:00:00 5,9 5,6 5,7 0 0 6 3 N 1014,5 13 0 0,0
09.11.2019 05:00:00 5,6 5,2 5,0 0 0 4 2 N 1014,0 13 0 0,0
09.11.2019 04:00:00 5,6 5,0 3,8 0 0 9 5 N 1013,5 20 0 0,0
09.11.2019 03:00:00 5,6 5,0 5,1 2 1 6 4 E 1012,8 19 0 0,0
09.11.2019 02:00:00 5,7 5,4 5,2 2 1 6 3 SSW 1012,4 13 0 0,0
09.11.2019 01:00:00 5,8 5,7 5,4 0 0 4 2 N 1012,0 7 0 0,0
09.11.2019 00:00:00 5,8 5,7 5,2 0 0 3 2 N 1011,7 11 0 0,0
08.11.2019 23:00:00 5,7 5,4 5,2 0 0 5 3 N 1011,1 16 0 0,0
08.11.2019 22:00:00 5,6 5,5 5,0 0 0 0 0 N 1010,4 10 0 0,0
08.11.2019 21:00:00 5,2 5,1 1,7 0 0 4 2 N 1009,7 9 0 0,0
08.11.2019 20:00:00 5,3 4,9 2,6 0 0 4 2 N 1008,7 6 0 0,2
08.11.2019 19:00:00 6,2 5,6 5,6 2 1 8 4 ENE 1007,9 19 0 0,6
08.11.2019 18:00:00 6,4 5,3 6,0 2 1 10 5 WNW 1006,9 20 0 1,4
08.11.2019 17:00:00 7,1 5,9 6,5 6 3 12 7 SW 1005,9 17 0 1,2
08.11.2019 16:00:00 8,0 5,8 7,3 7 4 23 12 WNW 1004,9 6 0 0,4
08.11.2019 15:00:00 10,6 2,4 11,4 4 2 13 7 ESE 1003,4 20 8 0,0
08.11.2019 14:00:00 10,1 2,9 10,7 6 3 13 7 SSW 1003,1 20 0 0,0
08.11.2019 13:00:00 10,3 3,1 11,0 9 5 17 9 SSE 1002,9 20 0 0,0
08.11.2019 12:00:00 9,5 3,7 11,6 13 7 19 10 S 1003,2 20 23 0,0
08.11.2019 11:00:00 9,4 4,0 7,1 14 7 21 11 SSE 1003,4 20 56 0,0
08.11.2019 10:00:00 4,8 3,0 5,5 0 0 6 3 N 1004,0 20 0 0,0
08.11.2019 09:00:00 3,8 2,8 -0,4 3 2 6 3 SSE 1004,1 20 56 0,0
08.11.2019 08:00:00 0,8 0,5 -2,4 2 1 7 4 WSW 1004,3 20 0 0,0
08.11.2019 07:00:00 0,5 -0,1 -2,1 0 0 4 2 N 1003,9 20 0 0,0
08.11.2019 06:00:00 1,7 0,7 -1,2 3 2 7 4 WSW 1003,7 20 0 0,0
08.11.2019 05:00:00 2,9 1,6 -0,8 3 2 11 6 S 1003,5 20 0 0,0
08.11.2019 04:00:00 3,8 2,3 -0,5 5 3 9 5 S 1003,7 20 0 0,0
08.11.2019 03:00:00 3,7 1,9 0,7 5 3 20 11 S 1003,8 20 0 0,0
08.11.2019 02:00:00 5,7 2,5 0,6 9 5 20 11 SSW 1003,7 20 0 0,0
08.11.2019 01:00:00 4,1 2,8 -0,3 3 2 9 5 SSW 1004,4 20 0 0,0
08.11.2019 00:00:00 4,7 3,4 0,8 6 3 12 7 SSW 1004,8 20 0 0,0
07.11.2019 23:00:00 4,7 3,5 0,8 5 3 12 7 S 1005,4 20 0 0,0
07.11.2019 22:00:00 6,5 3,1 3,9 8 4 15 8 S 1005,4 20 0 0,0
07.11.2019 21:00:00 6,1 4,7 3,6 3 1 6 3 SSE 1005,5 20 0 0,0
07.11.2019 20:00:00 6,5 4,8 2,9 3 1 6 4 E 1005,5 20 0 0,0
07.11.2019 19:00:00 6,3 5,1 2,5 4 2 9 5 S 1005,5 20 0 0,0
07.11.2019 18:00:00 6,9 4,6 2,9 0 0 11 6 N 1005,5 20 0 0,0
07.11.2019 17:00:00 8,9 5,1 8,7 7 4 25 14 S 1005,0 20 19 0,0
07.11.2019 16:00:00 10,4 3,9 10,3 11 6 26 14 S 1004,7 20 15 0,0
07.11.2019 15:00:00 11,9 3,6 13,1 13 7 23 13 S 1004,7 20 46 0,0
07.11.2019 14:00:00 11,0 3,3 12,9 8 5 27 14 SSW 1004,8 20 29 0,0
07.11.2019 13:00:00 10,7 3,5 10,5 9 5 19 10 S 1005,2 20 3 0,0
07.11.2019 12:00:00 9,6 2,7 10,4 9 5 22 12 SSW 1006,0 20 2 0,0
07.11.2019 11:00:00 10,0 2,6 10,7 9 5 22 12 SSW 1005,6 20 35 0,0
07.11.2019 10:00:00 9,8 3,5 6,9 8 4 31 17 S 1004,7 20 36 0,0
07.11.2019 09:00:00 8,9 3,9 6,0 8 4 41 22 SW 1003,9 20 8 0,0
07.11.2019 08:00:00 9,6 4,8 7,1 12 6 34 18 SSW 1002,1 20 0 0,6
07.11.2019 07:00:00 9,4 7,2 7,8 12 7 35 19 SSW 1000,7 9 0 0,2
07.11.2019 06:00:00 8,8 6,8 7,6 17 9 33 18 S 999,9 20 0 0,6
07.11.2019 05:00:00 8,7 6,8 7,7 12 6 28 15 SSW 1001,1 10 0 1,0
07.11.2019 04:00:00 9,4 5,8 7,5 15 8 29 15 S 1001,3 20 0 0,0
07.11.2019 03:00:00 8,7 5,6 6,8 15 8 28 15 S 1002,3 20 0 0,0
07.11.2019 02:00:00 7,5 6,1 5,7 7 4 16 8 S 1003,5 20 0 0,0
07.11.2019 01:00:00 7,0 5,9 3,1 5 3 12 6 S 1004,8 20 0 0,0
07.11.2019 00:00:00 7,4 6,0 4,7 6 3 17 9 S 1005,5 20 0 0,0
06.11.2019 23:00:00 8,3 6,8 7,0 13 7 17 9 SSE 1006,3 20 0 0,2
06.11.2019 22:00:00 7,9 6,8 6,7 3 2 11 6 S 1007,4 20 0 0,0
06.11.2019 21:00:00 8,2 7,0 6,7 5 3 11 6 S 1007,9 20 0 0,0
06.11.2019 20:00:00 8,7 7,3 7,6 4 2 15 8 S 1008,2 20 0 0,0
06.11.2019 19:00:00 8,9 7,8 8,2 9 5 16 9 SSE 1008,4 20 0 0,0
06.11.2019 18:00:00 9,3 8,1 8,0 8 4 13 7 S 1008,2 20 0 0,0
06.11.2019 17:00:00 10,1 8,4 9,0 3 1 10 5 SSE 1008,2 20 1 0,0
06.11.2019 16:00:00 10,5 8,8 10,3 6 3 12 6 SE 1008,3 20 0 0,0
06.11.2019 15:00:00 10,9 8,5 10,7 0 0 8 4 N 1008,3 20 0 0,8
06.11.2019 14:00:00 11,0 7,7 10,9 4 2 10 6 SSW 1008,5 20 21 0,0
06.11.2019 13:00:00 11,0 7,9 10,6 0 0 12 6 N 1008,9 11 8 0,4
06.11.2019 12:00:00 10,8 7,1 12,5 3 1 11 6 WSW 1009,2 20 3 0,0
06.11.2019 11:00:00 10,0 8,1 10,5 6 3 10 5 SSE 1009,2 20 0 0,0

tt = Température de l'air
td = dewpoint
tt 5cm = Température de l'air 5cm
ff = Vitesse du vent
fx = gusts
dd = Direction du vent
ppp = reduced air pressure
vv = visibility
sd = Ensoleillement
rr = Quantités de précipitations

stations d'obs. à proximité